Theta_e
307 307 307 307 305 305 306 306 306 306 307 306 304 303 302 302 302 299 297 297 294 289 289 290 292 289 289 288 284 287 286 288 289 286 285 285 284 286 284 287 285 283 284 284 285 282 280 297 296 289 295 299 298 298
307 307 306 305 305 305 305 305 306 305 307 307 305 303 302 302 302 300 295 297 296 290 290 295 294 295 293 293 289 289 287 288 291 289 288 287 285 287 285 281 292 285 290 286 288 288 297 299 297 299 299 297 298 298
308 307 306 306 305 305 305 305 305 304 306 307 305 303 302 302 302 301 297 297 295 290 289 289 290 294 296 296 296 287 290 292 292 297 289 288 284 288 282 284 287 290 293 289 288 291 293 296 298 299 300 299 301 301
308 308 307 306 305 305 305 305 305 303 305 307 305 303 302 302 302 302 297 297 296 290 284 288 295 294 298 297 295 295 294 295 295 296 291 288 286 292 288 289 287 290 291 289 289 293 293 295 297 299 300 301 301 301
307 308 307 306 306 305 304 305 304 303 305 307 306 303 302 302 302 301 298 297 298 291 285 287 293 295 296 296 295 295 293 291 291 290 289 287 291 291 291 290 287 292 288 286 285 291 291 292 298 302 300 299 299 298
307 307 307 306 305 305 305 305 303 303 305 307 306 303 302 301 301 296 289 296 298 296 288 283 294 294 296 296 295 293 291 290 290 289 290 293 296 292 287 286 292 292 294 293 289 294 295 299 302 301 299 298 298 296
307 307 307 307 305 304 304 304 303 303 305 306 303 301 301 301 299 292 289 296 298 297 289 285 287 294 295 295 297 295 293 292 291 290 291 293 293 293 288 285 289 291 291 293 297 299 296 298 298 300 299 297 294 293
306 307 306 306 305 304 303 304 303 303 305 302 300 299 301 301 300 295 298 300 300 294 292 285 286 290 295 293 292 299 292 292 291 292 294 291 292 291 286 289 289 290 291 294 296 301 300 299 298 297 296 293 290 290
306 306 306 305 305 304 303 303 302 304 302 299 298 301 300 297 294 295 302 302 300 294 288 287 283 283 294 293 294 295 296 291 297 291 291 291 288 284 287 286 287 289 289 291 296 299 297 296 295 293 290 291 289 289
306 306 306 305 304 303 303 302 302 302 299 297 297 295 292 295 300 304 299 293 291 293 292 287 290 286 291 291 290 291 293 289 286 290 292 288 287 289 290 290 290 291 292 294 293 294 295 293 291 290 289 290 290 289
306 306 306 305 304 303 303 302 302 299 297 293 288 289 292 298 295 291 287 288 289 286 290 289 290 288 293 287 288 291 288 289 286 287 287 287 285 286 289 289 291 292 293 294 296 298 297 295 291 290 290 290 290 290
306 306 306 305 304 304 302 302 299 295 292 291 292 295 294 291 288 284 284 288 287 285 290 288 290 290 292 294 290 292 288 288 284 291 288 284 287 288 289 289 290 291 292 293 296 298 296 294 291 288 289 288 289 291
306 306 305 304 304 302 303 300 298 297 297 296 292 289 288 288 283 282 281 285 284 288 291 291 288 289 291 291 289 288 285 284 291 286 284 285 287 289 289 289 289 291 293 294 296 297 296 294 292 290 288 288 290 291
305 305 304 303 303 303 301 299 298 297 294 290 288 282 284 283 285 287 285 286 288 288 288 288 286 288 289 287 289 284 287 289 282 279 280 286 287 287 289 289 289 289 291 293 296 296 295 294 292 290 290 291 291 289
305 304 304 303 304 301 300 298 298 296 291 289 289 282 283 289 288 288 288 288 289 289 289 287 290 290 286 286 284 283 281 278 279 278 282 286 287 286 288 288 289 289 291 293 296 295 294 293 293 293 293 292 291 290
304 303 301 303 301 300 298 298 295 294 292 290 288 284 286 285 285 287 288 289 291 290 290 291 287 283 281 282 280 276 276 275 280 283 286 287 286 287 288 289 290 291 292 292 296 295 294 293 293 293 294 293 291 290
300 296 302 301 299 298 297 294 293 290 289 287 285 288 287 288 288 289 290 291 292 290 287 288 282 280 285 280 276 280 279 281 284 286 286 287 287 288 289 290 290 291 292 293 297 295 294 295 295 294 291 293 292 292
295 300 300 299 297 295 293 293 291 289 285 287 285 287 288 289 290 291 292 292 292 289 289 285 287 280 279 277 279 283 285 287 287 286 287 288 288 289 290 290 291 291 291 293 295 297 295 294 293 292 293 293 292 291
299 298 299 297 294 292 288 290 291 286 287 288 289 290 291 290 290 291 291 291 292 292 288 286 282 281 281 285 284 284 287 285 285 286 288 288 289 289 290 290 291 291 290 291 292 293 296 296 295 294 294 293 291 290
299 299 298 297 296 293 288 290 294 288 286 289 290 289 290 289 289 289 289 289 289 288 285 283 283 285 286 287 288 289 287 286 286 285 285 287 289 290 290 290 289 290 290 290 291 291 295 297 296 295 294 292 292 290
296 296 297 295 291 291 290 290 289 289 289 288 290 290 287 289 288 288 287 288 287 285 283 286 286 288 290 290 291 290 286 286 286 286 285 285 288 288 289 290 289 290 289 288 287 290 292 293 297 297 296 293 292 291
294 295 292 292 289 289 288 292 289 289 288 289 289 290 287 286 286 287 287 285 285 286 287 287 288 289 289 289 288 286 286 286 288 288 288 288 286 287 287 287 287 287 288 287 287 288 291 294 297 298 297 294 293 291
295 293 291 290 287 287 287 292 286 287 285 287 290 287 286 286 287 289 284 285 286 287 288 289 290 291 290 290 287 285 285 284 286 287 287 287 288 288 286 287 287 287 286 286 287 288 290 290 294 297 297 294 293 293
296 289 286 286 286 284 289 285 288 287 287 286 286 285 285 286 287 286 284 285 286 287 288 289 290 289 290 289 287 284 284 284 284 287 286 285 285 286 286 286 287 287 287 287 287 287 288 290 291 295 297 294 291 292
284 283 286 281 287 284 283 283 284 285 283 285 285 285 285 287 285 283 284 285 285 286 287 289 289 289 288 288 286 284 284 283 283 283 285 285 285 285 285 286 287 288 287 284 284 286 286 288 290 292 295 293 291 291
280 284 283 284 284 283 284 281 283 284 285 284 286 288 288 286 283 283 286 285 285 287 288 288 288 288 287 288 285 285 283 284 284 284 284 284 284 283 282 283 283 286 287 284 284 285 285 286 287 289 292 291 286 290
279 281 285 289 288 287 286 287 288 286 284 283 286 285 285 282 282 286 285 286 286 288 290 291 291 290 288 284 284 284 285 285 284 284 285 284 285 285 283 281 281 283 284 284 285 285 285 285 285 286 288 293 293 292
284 285 281 285 286 287 285 285 284 284 285 289 288 284 283 284 284 286 287 288 289 290 290 290 291 289 286 284 284 284 284 285 284 284 284 284 284 284 283 284 284 282 283 285 284 285 286 285 284 285 285 287 293 292
283 287 286 283 284 285 285 285 286 288 290 289 286 284 283 285 286 287 287 288 290 289 286 285 284 284 283 283 283 283 284 283 282 279 279 279 279 281 282 283 284 284 284 283 283 284 284 284 283 284 284 286 289 294
283 287 284 283 283 283 287 289 287 288 287 287 286 284 284 284 285 288 288 288 288 287 287 286 284 284 283 283 282 282 282 283 282 281 279 278 279 281 282 282 283 283 283 283 284 285 284 285 286 287 286 288 289 291
287 287 285 285 284 286 286 287 287 287 286 284 286 284 283 284 285 286 286 287 287 286 285 284 284 285 284 283 283 282 281 282 281 281 281 281 281 281 282 282 283 283 283 284 284 283 282 283 284 284 283 284 286 288
285 285 284 282 284 286 288 286 285 284 284 283 282 284 284 283 281 284 285 286 285 284 284 285 284 284 285 284 284 283 281 282 281 281 279 280 280 281 281 281 282 283 283 283 283 282 281 281 281 282 282 282 283 287
284 285 286 285 283 285 286 285 283 282 282 282 282 282 281 281 279 283 286 287 287 286 285 286 285 284 284 283 283 282 282 281 279 278 277 277 276 277 280 280 281 282 282 282 282 281 280 279 279 279 280 280 282 285
Wind_Speed
21 19 16 13 12 14 13 10 9 11 9 8 7 8 8 7 6 1 0 4 2 3 9 7 4 5 5 4 3 4 5 2 2 2 3 3 3 3 4 5 2 2 4 2 4 6 6 3 2 6 13 19 17 23
21 19 17 15 15 16 13 10 9 10 10 9 8 8 8 7 7 1 2 3 4 3 7 6 17 19 19 14 2 2 3 3 2 2 0 3 3 3 5 4 3 3 3 4 5 6 13 17 16 15 16 18 22 17
22 22 20 18 16 16 13 11 8 8 13 11 9 8 8 8 8 5 2 1 2 3 6 4 5 2 7 15 13 4 3 4 3 2 1 2 5 2 3 3 5 4 3 5 8 2 14 21 19 17 19 18 18 21
22 22 22 20 18 17 14 13 10 9 14 13 10 8 8 9 9 7 2 1 1 3 4 5 3 7 4 7 14 17 7 1 2 2 2 3 3 4 3 4 7 7 8 7 12 16 15 15 15 21 23 19 22 20
22 22 23 22 20 18 16 15 13 10 14 14 10 7 7 9 8 4 3 5 6 3 3 7 14 2 4 6 10 12 13 10 4 3 4 3 2 3 3 3 4 1 3 3 7 19 18 20 24 25 24 20 22 25
21 22 22 22 22 20 17 16 13 12 15 15 7 4 5 8 4 1 2 2 6 5 2 4 4 4 5 5 7 7 7 6 4 4 4 4 5 4 3 3 4 15 17 12 8 17 21 24 21 21 22 26 23 14
21 21 22 24 22 19 17 16 14 12 14 10 4 2 7 7 3 3 1 2 7 3 2 4 4 2 5 3 1 3 8 3 3 2 4 3 2 4 2 3 18 21 20 22 22 18 18 16 22 22 23 19 16 18
19 20 21 22 22 20 18 17 14 11 12 6 2 4 8 8 5 5 5 11 7 2 2 3 5 4 3 3 3 2 3 3 5 3 3 0 2 1 3 17 20 20 21 18 21 20 18 19 21 23 14 15 18 13
19 19 20 23 22 21 19 17 12 12 9 5 3 10 1 2 3 3 4 15 2 2 2 1 3 4 3 2 2 2 2 3 3 3 1 1 2 5 11 16 19 20 15 18 20 20 20 20 22 18 14 15 13 13
18 18 21 23 23 21 20 17 14 12 10 2 1 2 3 3 4 12 2 4 3 4 3 3 2 4 2 2 2 3 1 2 2 1 3 1 3 2 9 11 14 16 18 19 22 21 24 22 20 12 14 13 12 13
17 18 22 25 24 22 21 17 17 16 6 2 3 2 2 3 1 1 3 3 3 3 4 4 5 4 0 3 3 1 3 1 3 1 1 2 2 12 17 20 18 17 19 19 19 20 20 18 18 16 14 14 13 13
16 18 23 25 24 23 20 19 18 5 3 3 1 2 1 2 2 4 4 3 4 4 4 4 3 4 1 2 3 1 3 2 3 3 1 2 3 16 17 21 21 19 20 21 21 22 21 19 16 12 12 14 14 14
16 20 22 23 25 23 19 22 14 15 8 2 1 3 3 4 5 5 7 4 3 4 4 3 1 0 1 1 3 2 3 3 5 2 3 2 10 13 18 16 20 21 22 22 22 22 19 18 15 14 14 14 13 13
16 19 24 26 24 22 24 21 18 10 2 4 5 5 6 5 5 4 3 3 2 2 1 1 1 1 2 2 1 3 3 3 2 3 4 7 14 19 18 16 16 20 21 21 21 22 20 18 16 15 14 14 14 14
18 24 25 23 22 26 23 21 16 2 3 4 4 5 6 2 1 2 2 2 2 2 2 3 3 1 2 1 2 2 3 4 3 3 5 9 16 16 17 17 17 17 17 17 18 17 18 17 15 15 15 14 15 15
24 23 5 24 26 24 23 17 5 2 2 3 4 3 1 3 3 3 2 2 2 2 2 1 3 3 3 1 3 3 1 0 3 5 8 11 13 14 15 16 16 15 15 15 15 15 15 16 15 14 13 14 14 13
13 1 27 27 26 25 20 4 3 5 3 4 3 2 1 1 3 3 2 2 2 2 2 2 3 2 2 3 2 2 1 2 6 7 7 10 12 14 14 15 15 16 16 15 15 15 13 14 14 14 16 15 13 12
4 20 30 29 19 13 1 2 3 4 5 4 3 3 2 1 4 3 2 1 2 3 2 2 3 3 2 3 3 2 1 4 5 7 8 9 12 13 12 13 14 14 14 14 14 13 13 14 13 11 13 13 11 13
17 19 31 28 10 5 5 4 3 3 4 2 2 2 3 4 3 5 4 4 3 3 5 2 3 2 3 2 3 2 2 4 6 7 7 9 10 12 13 13 13 15 14 13 13 10 10 12 12 9 9 10 9 10
28 29 27 18 4 2 4 3 3 2 4 3 3 4 3 4 4 4 4 2 2 2 3 2 2 3 3 4 2 2 2 4 5 6 7 7 8 11 11 10 9 12 9 11 10 12 10 10 10 9 9 9 9 10
18 16 16 3 1 1 1 2 3 3 2 2 5 4 4 3 3 2 2 1 2 2 2 2 5 5 5 4 4 2 3 4 4 3 5 7 8 8 9 8 9 8 8 8 9 10 11 10 10 9 9 9 8 8
7 11 3 1 1 2 2 3 1 2 2 3 5 3 4 3 3 3 3 2 2 2 3 4 6 6 6 6 5 4 4 4 3 3 4 7 7 7 9 9 8 8 8 7 8 9 9 9 10 9 7 8 7 9
12 4 2 2 2 2 2 2 3 3 4 6 4 4 3 3 3 4 2 1 2 2 4 6 7 8 8 8 6 5 5 5 3 4 5 6 5 6 7 7 8 8 8 9 8 8 9 10 11 10 7 7 7 8
6 3 3 3 3 4 2 3 1 3 3 4 4 4 4 3 4 2 2 3 3 5 6 8 7 7 6 5 4 4 4 4 3 2 5 6 6 6 7 6 7 7 7 8 8 8 8 10 11 9 8 7 8 8
4 2 3 4 4 4 4 4 3 3 4 4 5 4 4 4 3 4 3 4 7 8 7 7 6 5 4 4 4 3 3 4 3 3 4 5 5 5 6 6 7 7 7 9 10 11 9 10 10 10 10 5 7 7
3 5 7 7 4 4 5 6 6 5 4 4 3 4 3 3 4 4 3 6 7 8 8 7 7 6 4 4 4 2 3 3 2 1 3 4 4 6 8 8 8 8 8 8 9 11 12 9 11 13 11 4 4 5
3 4 4 2 2 2 2 1 2 3 5 5 5 5 4 4 5 2 3 4 4 5 7 6 6 5 6 6 4 3 3 2 2 1 1 2 3 4 6 7 9 8 11 11 10 10 11 11 9 9 9 8 1 1
2 2 4 5 3 2 3 3 4 6 4 4 6 6 7 3 2 2 1 4 6 9 8 6 5 6 7 6 4 3 4 4 4 3 3 1 3 3 8 6 6 10 9 9 10 10 10 10 10 8 8 7 6 4
2 2 2 4 3 3 3 4 3 1 2 5 5 4 4 2 2 1 3 6 8 9 9 8 7 7 7 6 5 5 4 5 8 9 9 6 6 5 9 8 8 8 8 9 11 8 11 11 11 10 9 7 7 4
4 4 3 4 4 7 1 2 2 2 4 4 4 4 3 2 3 2 7 7 8 8 8 8 9 7 7 5 5 5 4 4 4 5 4 5 5 7 8 8 9 9 8 10 10 10 9 11 8 7 6 3 5 7
4 4 4 4 2 2 4 7 7 6 5 4 4 4 6 4 3 4 3 2 6 8 9 8 6 5 6 5 3 3 4 3 4 5 5 4 5 5 7 8 7 7 8 10 10 9 11 11 10 10 9 8 7 8
3 4 4 3 2 5 4 3 2 3 3 2 3 3 3 3 4 2 3 2 6 7 5 7 7 5 4 5 5 6 5 4 4 5 8 6 6 7 7 7 7 7 9 9 10 10 12 12 11 11 10 11 9 8
2 3 2 3 3 4 3 4 3 4 3 2 2 2 3 3 4 2 2 3 2 5 7 6 6 8 9 8 7 5 4 4 5 5 5 6 7 7 6 6 7 8 10 9 10 10 12 15 13 15 15 13 12 11
Wind_Direction
223 219 222 215 240 253 245 247 262 280 274 277 281 286 293 300 307 179 225 183 218 251 282 257 242 244 264 240 255 347 300 171 270 270 312 341 305 359 290 294 207 258 286 196 228 244 262 58 312 290 318 306 312 308
221 213 208 212 229 242 233 233 238 267 279 266 269 271 277 287 288 293 246 171 181 229 271 286 272 262 250 246 301 233 302 295 310 303 356 277 279 314 324 308 238 293 315 299 242 271 313 312 309 312 307 295 290 290
230 217 206 204 218 232 220 224 226 255 275 260 257 262 268 277 275 248 232 187 214 281 286 276 235 211 223 229 214 232 217 236 234 22 278 281 276 237 285 277 291 277 292 260 311 280 298 303 300 297 291 290 294 299
235 227 211 203 207 218 209 209 205 242 266 260 249 252 267 273 275 267 226 175 184 274 286 278 310 283 260 199 196 215 228 119 293 210 249 248 261 196 268 295 280 284 308 283 273 284 300 272 287 291 294 292 294 297
239 231 219 206 199 200 208 211 194 224 259 257 246 242 264 279 284 286 215 210 215 239 297 291 304 249 229 196 215 216 220 228 245 273 237 241 237 267 246 261 244 286 315 285 287 299 288 286 292 296 303 301 300 302
241 235 224 209 195 194 204 203 192 217 255 252 232 234 276 281 292 6 282 168 200 189 260 294 323 273 297 275 260 218 198 190 200 201 234 236 206 205 251 259 84 335 325 310 279 290 288 286 299 322 311 305 308 309
242 235 223 209 198 190 202 198 200 216 248 242 170 244 274 271 196 209 323 57 175 151 246 287 283 272 308 290 184 126 163 177 166 225 238 246 227 210 255 275 335 330 316 309 303 305 310 316 312 313 314 314 324 306
244 236 222 204 192 185 190 200 199 217 243 149 120 272 283 264 252 258 233 181 163 209 226 278 284 287 11 317 307 147 167 208 188 239 224 94 31 325 282 336 326 317 316 317 322 319 311 311 311 321 324 324 311 300
242 232 215 193 186 180 185 191 195 229 141 106 288 285 146 158 187 234 181 171 148 290 295 273 289 309 0 299 279 268 253 244 143 240 109 100 59 43 308 303 319 318 312 303 312 316 324 318 322 321 324 315 310 313
238 225 202 187 178 177 183 176 199 148 117 100 262 206 212 185 251 133 169 158 178 202 216 251 255 262 300 323 291 299 220 273 259 116 89 105 103 330 312 303 311 315 323 325 329 335 330 329 332 331 321 313 309 309
230 214 195 181 173 177 171 182 158 125 105 111 191 218 64 311 108 174 201 232 162 214 207 236 234 269 164 277 298 230 307 253 260 92 236 105 19 345 330 336 333 332 330 329 327 324 331 337 334 331 326 323 323 322
219 203 187 176 170 166 165 158 146 116 135 173 131 92 148 177 188 211 197 190 216 231 184 211 237 216 239 262 264 268 288 293 26 334 231 62 25 337 339 336 335 336 335 335 335 337 347 347 351 334 328 333 334 334
207 192 180 166 154 159 168 149 133 123 134 148 161 163 190 163 207 212 184 182 214 192 191 203 250 3 188 259 266 303 299 2 290 11 48 52 340 340 334 335 332 334 337 336 337 346 353 348 348 346 341 341 344 354
196 177 159 153 157 158 147 147 139 139 138 196 171 189 214 186 227 196 174 153 131 155 162 202 115 31 56 352 329 286 4 296 32 31 357 347 343 337 331 333 333 329 333 333 338 349 352 355 356 347 353 358 358 7
172 157 151 152 153 144 144 143 145 150 183 211 192 215 208 219 89 132 111 123 111 114 157 136 114 55 36 42 13 315 18 53 21 346 308 329 332 331 324 330 329 330 332 332 337 350 350 355 358 357 9 10 9 7
142 130 136 143 140 139 136 134 139 202 232 233 231 229 169 165 141 155 133 121 127 121 134 113 106 84 62 48 55 50 87 162 331 324 319 322 323 320 324 325 327 327 333 334 335 355 352 356 354 356 3 15 15 12
103 71 137 134 134 130 130 123 167 204 226 216 234 213 231 109 137 122 143 124 133 183 129 131 111 111 130 97 106 139 119 307 320 318 320 320 322 321 328 323 329 333 340 338 347 357 358 356 2 1 4 9 12 10
91 132 130 131 120 129 48 211 214 204 228 219 219 174 162 73 115 122 119 110 161 123 158 108 124 141 126 135 140 126 348 328 318 310 319 328 327 327 333 331 331 338 339 343 352 358 2 1 6 358 357 1 11 6
135 135 137 136 145 138 156 186 219 231 210 204 157 126 105 100 72 91 89 81 80 95 118 106 105 119 138 120 115 123 1 326 318 317 326 336 330 331 335 344 345 346 344 349 351 356 358 15 8 1 355 1 10 10
134 139 138 148 161 138 130 172 199 232 198 163 121 134 113 103 109 95 102 80 66 77 85 84 110 127 121 132 145 82 345 323 311 328 337 344 342 338 344 346 344 338 342 347 356 0 352 7 14 8 11 3 4 18
109 134 134 99 46 301 271 151 193 220 143 148 127 129 100 125 122 129 109 89 93 74 124 124 126 119 124 114 105 71 22 343 338 316 316 325 347 345 342 351 351 349 353 355 353 347 355 357 354 355 5 16 15 18
107 133 88 315 86 217 252 224 216 130 130 132 138 123 131 157 148 152 134 104 105 122 147 145 144 140 137 129 108 61 26 352 353 322 329 339 354 355 349 349 350 354 357 353 348 341 339 355 353 352 9 17 30 35
111 106 117 143 150 210 257 164 185 173 140 162 146 122 136 134 116 147 99 103 125 146 149 150 150 144 128 128 113 79 39 11 20 8 355 351 352 360 358 354 352 350 354 349 341 338 342 339 356 354 13 19 24 40
103 113 134 169 198 201 180 187 176 129 115 166 171 126 141 131 165 206 155 170 148 151 160 155 152 135 133 134 87 47 23 357 6 40 11 350 1 9 3 358 354 348 359 336 340 342 345 346 340 349 358 32 37 43
119 182 179 203 203 189 173 160 158 176 153 156 145 133 150 160 166 188 202 166 166 173 167 164 168 168 149 120 110 75 42 1 358 1 33 354 350 357 8 4 2 356 358 345 348 345 348 343 347 350 350 29 55 60
142 180 190 194 168 187 163 172 191 172 147 146 124 112 152 149 175 216 200 167 168 170 166 162 153 136 122 111 120 66 19 350 304 15 55 6 9 4 358 356 355 354 359 343 331 339 342 342 345 347 346 26 50 77
147 197 203 246 175 177 199 183 135 168 175 154 152 158 164 172 215 179 115 158 141 148 151 147 147 147 138 132 121 85 26 15 346 357 67 40 36 27 5 347 337 329 330 326 328 334 334 335 333 336 335 333 272 69
226 220 176 169 186 199 208 184 175 186 176 143 148 175 176 194 145 122 117 141 135 128 122 113 111 123 124 114 99 82 40 18 49 118 208 75 43 24 2 340 331 323 316 326 322 323 328 328 319 315 312 306 300 183
206 190 120 158 187 229 228 213 213 120 78 163 145 126 125 60 23 46 116 135 131 124 124 121 118 118 112 107 92 73 48 26 40 47 35 16 1 5 350 339 335 337 338 330 325 316 326 323 314 304 288 276 288 213
171 131 153 181 203 209 172 350 94 82 51 68 103 113 99 59 21 78 135 140 141 142 145 144 144 149 142 139 125 105 67 52 45 35 12 358 334 324 328 332 335 338 337 332 332 332 337 330 336 342 336 288 235 193
146 177 182 195 223 57 91 105 93 81 63 53 46 84 103 119 75 38 58 105 126 130 133 139 142 142 143 145 142 129 113 74 46 35 9 339 334 331 332 332 332 332 334 336 338 342 342 340 339 335 333 322 302 201
195 190 179 175 127 141 129 60 52 72 82 76 88 100 109 94 91 61 29 138 141 139 136 151 154 149 129 109 97 86 71 73 33 14 7 355 346 342 337 339 336 336 341 341 343 345 346 346 334 328 322 309 288 239
148 195 201 145 144 184 137 115 92 89 89 95 92 84 57 74 109 102 58 14 144 145 141 126 114 117 120 113 108 103 86 72 64 45 22 10 353 343 337 353 346 347 349 351 351 351 351 348 342 333 324 311 276 231